Regional Weather Roundup
Issued by NWS Newport/Morehead, NC

Current Version | Previous Version | Graphics & Text | Print | Product List | Glossary Off
Versions: 1 2 3 4 5 6 7 8 9 10 11 12 13 14 15 16 17 18 19 20 21 22 23 24 25 26 27 28 29 30 31 32 33 34 35 36 37 38 39 40 41 42 43 44 45 46 47 48 49 50

975
ASUS42 KMHX 210710
RWRMHX
WEATHER ROUNDUP FOR EASTERN NORTH CAROLINA
NATIONAL WEATHER SERVICE NEWPORT/MOREHEAD CITY NC
200 AM EST SUN JAN 21 2018

NOTE: "FAIR" INDICATES FEW OR NO CLOUDS BELOW 12,000 FEET
WITH NO SIGNIFICANT WEATHER AND/OR OBSTRUCTIONS TO VISIBILITY

NCZ015>017-031-032-045>047-102-103-210800-
NORTH COAST

CITY           SKY/WX    TMP DP  RH WIND       PRES   REMARKS
EDENTON        FAIR      46  29  53 SW6       30.18S
ELIZABETH CITY FAIR      38  33  82 SW7       30.17R
KITTY HAWK     FAIR      43  28  54 CALM      30.15S
MANTEO         FAIR      41  31  67 W5        30.18R

$$

NCZ045>047-081-094-103-104-210800-
CENTRAL COAST

CITY           SKY/WX    TMP DP  RH WIND       PRES   REMARKS
FRISCO         FAIR      48  34  58 W7        30.19R

$$

NCZ095-097-098-100-101-210800-
SOUTHERN COAST

CITY           SKY/WX    TMP DP  RH WIND       PRES   REMARKS
BEAUFORT       FAIR      41  34  76 CALM      30.21S
CEDAR ISLAND   NOT AVBL
JACKSONVILLE   FAIR      41  30  65 CALM      30.20F
PINEY ISLAND   NOT AVBL
WILMINGTON     FAIR      40  33  76 CALM      30.21F


$$

NCZ011>013-027>030-043-044-078>080-089-090>093-098-210800-
COASTAL PLAIN

CITY           SKY/WX    TMP DP  RH WIND       PRES   REMARKS
AHOSKIE        FAIR      39  32  77 CALM      30.17R
CLINTON        FAIR      40  28  62 CALM      30.20F
ELIZABETHTOWN  NOT AVBL
GOLDSBORO      FAIR      44  23  44 W5        30.17S
GREENVILLE     FAIR      39  27  60 SW3       30.20R
HAVELOCK       NOT AVBL
KENANSVILLE    FAIR      37  28  70 SW6       30.20S
KINSTON        FAIR      40  26  57 SW5       30.20S
NEW BERN       FAIR      43  27  53 SW7       30.20F
RICHLANDS      FAIR      35  30  82 CALM      30.21F
ROCKY MOUNT    NOT AVBL
WASHINGTON     FAIR      41  25  52 SW3       30.20R
WHITEVILLE     FAIR      38  32  79 SW3       30.21S

$$

AMZ130-135-150-152-154-156-158-170-250-252-270-ANZ085-086-088-633-658-670-210800-
MARINE OBSERVATIONS

STATION/POSITION TIME  TEMP    WIND        PRES    WAVE   SWELL
                       AIR SEA DIR/SP/G            HT/PER HT/PER
                 (UTC) (F)     (DEG/KT/KT) (MB)    (FT/S) (FT/S)
CHESAPEAKE LIGHT NOT AVBL
64 E VA BEACH    NOT AVBL
DUCK             NOT AVBL
2 E DUCK         NOT AVBL
OREGON INLET     NOT AVBL
13E OREGON INLT  NOT AVBL
HATTERAS CG      NOT AVBL
DIAMOND BUOY     NOT AVBL
CAPE LOOKOUT     NOT AVBL
BEAUFORT LAB     NOT AVBL
30 SE NEW RVR IN NOT AVBL
30 SE NEW RVR IN NOT AVBL
27 SE WRIGHTSVLE NOT AVBL
5 SE WRIGHTSVLE  NOT AVBL
225 S CAPE HAT   NOT AVBL
41 SE CHARLESTON NOT AVBL

$$




USA.gov is the U.S. government's official web portal to all federal, state and local government web resources and services.